Weather Service Report


253 
ASUS43 KIND 191909
RWRIN 

WEATHER ROUNDUP FOR INDIANA
NATIONAL WEATHER SERVICE INDIANAPOLIS IN
200 PM EST THU JAN 19 2017

NOTE: "FAIR" INDICATES FEW OR NO CLOUDS BELOW 12,000 FEET WITH NO
SIGNIFICANT WEATHER AND/OR OBSTRUCTIONS TO VISIBILITY.

* - STATION DOES NOT REPORT WEATHER SUCH AS PRECIPITATION OR FOG.

+ - STATION NOT QUALITY CONTROLLED BY THE NATIONAL WEATHER SERVICE.
    USE DATA WITH CAUTION...ESPECIALLY DEWPOINT AND RELATIVE
    HUMIDITY OBSERVATIONS.

INZ001>003-010>013-019-020-192000-
NORTHWEST INDIANA
  
CITY           SKY/WX    TMP DP  RH WIND       PRES   REMARKS
GARY /AIRPORT/ CLOUDY    43  36  75 SE10      29.93F FOG              
KNOX *+        CLOUDY    37  27  65 SE9       29.94F                  
LA PORTE +     CLOUDY    38  37  95 SE12      29.94F FOG              
MICHIGAN CITY+ PTSUNNY   37  37 100 SE8       29.94F FOG              
MONTICELLO +   PTSUNNY   39  36  87 E7        29.93F                  
RENSSELAER +     N/A     43  39  87 E9        29.92F FOG              
VALPARAISO     CLOUDY    40  38  93 SE9       29.93F FOG              

$$

LMZ046-743>745-192000-
SOUTHERN LAKE MICHIGAN
  
STATION/POSITION TIME  TEMP    WIND        PRES    WAVE
                       AIR SEA DIR/SP/G            HT
                 (UTC) (F)     (DEG/KT/KT) (MB)    (FT)
BURNS HARBOR     1840   40     120/  8/ 11 1014.2F
MICHIGAN CITY    1840   39     110/  9/ 10   N/A

$$

INZ004-005-014>016-021>024-192000-
NORTH CENTRAL INDIANA
  
CITY           SKY/WX    TMP DP  RH WIND       PRES   REMARKS
ELKHART        CLOUDY    39  36  87 CALM      29.96F FOG              
GOSHEN         CLOUDY    39  33  79 SE7       29.96F HAZE             
LOGANSPORT +   CLOUDY    37  36  93 E8        29.95F FOG              
PERU/GRISSOM   CLOUDY    40  40 100 E8        29.93F                  
ROCHESTER +    CLOUDY    39  37  93 SE7       29.95F FOG              
SOUTH BEND     CLOUDY    37  36  96 SE8       29.95F FOG              
WARSAW +       CLOUDY    37  30  75 SE6       29.95F HAZE             

$$

INZ006>009-017-018-025>027-192000-
NORTHEAST INDIANA
  
CITY           SKY/WX    TMP DP  RH WIND       PRES   REMARKS
ANGOLA *+      PTSUNNY   36  28  75 SE5       29.96F                  
AUBURN +       CLOUDY    37  32  81 SE5       29.98F HAZE             
FORT WAYNE     CLOUDY    40  34  79 SE9       29.98F                  
HUNTINGTON +   CLOUDY    38  36  92 E8        29.95F                  
KENDALLVILLE + CLOUDY    37  35  92 SE6       29.97F FOG              

$$

INZ028-029-035-036-043>045-051>053-192000-
WEST CENTRAL INDIANA
  
CITY           SKY/WX    TMP DP  RH WIND       PRES   REMARKS
CRAWFORDSVL +  CLOUDY    42  42 100 SE6       29.90F                  
GREENCASTLE +  CLOUDY    45  37  76 SE7       29.90F                  
LAFAYETTE      CLOUDY    43  38  82 E10       29.92F                  
TERRE HAUTE    LGT RAIN  46  39  76 NE8       29.86F                  

$$

INZ030>032-037>040-046>048-054>057-064-065-192000-
CENTRAL INDIANA
  
CITY           SKY/WX    TMP DP  RH WIND       PRES   REMARKS
ANDERSON       MOSUNNY   43  39  87 SE12      29.96F                  
CP ATTERBURY + CLOUDY    45  39  81 E3        29.93F                  
COLUMBUS       CLOUDY    46  41  81 SE6       29.94F                  
FRANKFORT +    CLOUDY    45  41  85 SE9       29.94F FOG              
GREENWOOD *+   CLOUDY    46  41  85 SE6       29.93F                  
INDIANAPOLIS   CLOUDY    45  38  76 SE9       29.92F                  
-EAGLE CREEK   CLOUDY    46  38  73 SE7       29.91F                  
KOKOMO +       CLOUDY    40  37  89 SE10      29.95F FOG              
MARION +       PTSUNNY   39  36  87 SE7       29.96F                  
MT COMFORT *+  CLOUDY    43  39  87 SE7       29.94F                  
SHELBYVILLE    CLOUDY    47  39  74 SE7       29.94F                  
ZIONSVILLE +   PTSUNNY   43  38  83 SE6       29.94F                  

$$

INZ033-034-041-042-049-050-058-059-192000-
EAST CENTRAL INDIANA
  
CITY           SKY/WX    TMP DP  RH WIND       PRES   REMARKS
MUNCIE         CLOUDY    44  38  79 SE6       29.96F                  

$$

INZ060-061-067>069-081>083-085>088-192000-
SOUTHWEST INDIANA
  
CITY           SKY/WX    TMP DP  RH WIND       PRES   REMARKS
EVANSVILLE     LGT RAIN  48  44  86 E8        29.85F                  
HUNTINGBURG *+ CLOUDY    52  43  71 MISG      29.87F                  
WASHINGTON +   CLOUDY    47  42  80 E7        29.88S                  

$$

INZ062-063-066-070>080-084-089>092-192000-
SOUTH CENTRAL AND SOUTHEAST INDIANA
  
CITY           SKY/WX    TMP DP  RH WIND       PRES   REMARKS
BLOOMINGTON    CLOUDY    47  38  71 SE9       29.89F                  
MADISON *+     CLOUDY    46  39  76 E8        29.94F                  
NORTH VERNON + CLOUDY    48  39  71 E6        29.95F                  
SEYMOUR +      CLOUDY    48  41  76 E9        29.91F                  

$$

  

Return to Home page


Western Regional Climate Center, wrcc@dri.edu